Volver al catálogo

FENGYUN 1C DEB

LostSSO
NORAD 36223·DEBRIS·🇨🇳 China

Lanzado May 10, 1999 desde Taiyuan Satellite Launch Center

Loading…

Próximos Pases (próximas 24 horas)

TLE

ObsoletoSource: Space-Track

Época: Jan 3, 2025, 01:05 UTC

1 36223U 99025DUY 25003.04532672  .00059271  00000-0  12767-1 0  9998
2 36223  98.3330 300.0384 0062376 164.1654 196.1514 14.56911944 30883

Sigue FENGYUN 1C DEB en tiempo real con AllMySat

Download on the App Store